Find Starlink 4522

NORAD ID: 53388 Int'l Des: 2022-097 Owner: SPXS Country: US Constellation: starlink operational
LEOCIRCULAR

リアルタイム位置

3D地球を読み込み中...

Starlink 4522について

説明を読み込み中...

次回通過

Passes for default location (London). Set your location on the main map for personalized predictions.

高度履歴

Loading altitude history...

軌道要素

1 53388U 22097A 26120.65562285 .00002124 00000-0 15144-3 0 9994
2 53388 53.2188 250.8381 0001357 90.9536 269.1611 15.08853758206690
Epoch: Apr 30, 2026 • Age: 23 hours

現在のステータス

高度 546.2 km
速度 7.59 km/s
衛星直下点 -21.75°S, 0.61°E
打ち上げ日 Aug 10, 2022
運用期間 3.7 years
タイプ internet

技術仕様

分類 Payload
質量 297.00 kg
乾燥質量 275.00 kg
総質量 297.00 kg
長さ 0.20 m
直径 2.80 m
スパン 9.00 m
形状 Box + pan
製造者 SPXS
バスタイプ Starlink
フェーズステータス In Orbit
所有者/国 SPXS/US

Most Searched